Location: Newark
(52.9422°N, 12.3972°E)
Time: 17:00:59
(UTC+00:00)

N. Korean satellite - Visible Passes

Search period start: 30 September 2020 00:00
Search period end: 10 October 2020 00:00
Orbit: 455 x 503 km, 97.2° (Epoch: 29 September)

Date Brightness Start Highest point End Pass type
(mag) Time Alt. Az. Time Alt. Az. Time Alt. Az.
01 Oct 8.9 04:15:45 10° NNE 04:18:59 30° E 04:22:08 10° SSE visible
02 Oct 9.8 03:50:19 10° NE 03:52:43 17° E 03:55:04 10° SE visible
04 Oct 8.0 04:30:46 10° NNE 04:34:14 43° E 04:37:36 10° S visible
05 Oct 9.3 04:05:05 10° NE 04:08:01 23° E 04:10:52 10° SSE visible
06 Oct 10.0 03:40:00 10° ENE 03:41:41 13° E 03:43:22 10° ESE visible
07 Oct 7.1 04:45:50 10° NNE 04:49:24 64° ESE 04:52:53 10° S visible
08 Oct 8.6 04:19:58 10° NNE 04:23:13 32° E 04:26:25 10° SSE visible
09 Oct 9.7 03:54:26 10° NE 03:56:57 18° E 03:59:24 10° SE visible
